Volver al catálogo

STARLINK-34634

ActivoComunicacionesVLEO
NORAD 65079·PAYLOAD·🇺🇸 United States

Lanzado Aug 4, 2025 desde Cape Canaveral Space Force Station

Loading…

Próximos Pases (próximas 24 horas)

TLE

ActualizadoSource: CelesTrak SupGP

Época: Sep 14, 2026, 20:42 UTC

1 65079C 25167B   26257.86298611  .00047101  00000+0  13915-2 0  2571
2 65079  53.1575 221.7274 0001487  96.8523 197.6750 15.34369970    16

Sigue STARLINK-34634 en tiempo real con AllMySat

Download on the App Store